| time (UTC) | temp C | wind direction | speed KPH | gust KPH | rain 1hr cm | rain 24hr cm | rain mn cm | humidity % | barometer mb |
| 20260503232007 | 23 | 249 | 0.0 | 6.4 | 0.00 | 0.00 | 0.00 | 32 | 1008.8 |
| 20260503231512 | 23 | 259 | 0.0 | 6.4 | 0.00 | 0.00 | 0.00 | 31 | 1008.8 |
| 20260503231006 | 23 | 260 | 1.6 | 6.4 | 0.00 | 0.00 | 0.00 | 34 | 1008.8 |
| 20260503230506 | 23 | 259 | 0.0 | 8.0 | 0.00 | 0.00 | 0.00 | 31 | 1008.8 |
| 20260503230008 | 23 | 273 | 1.6 | 11.3 | 0.00 | 0.00 | 0.00 | 32 | 1008.9 |
| 20260503225506 | 23 | 298 | 1.6 | 11.3 | 0.00 | 0.00 | 0.00 | 32 | 1008.9 |
| 20260503225007 | 23 | 325 | 3.2 | 11.3 | 0.00 | 0.00 | 0.00 | 33 | 1008.8 |
| 20260503224507 | 24 | 344 | 4.8 | 11.3 | 0.00 | 0.00 | 0.00 | 33 | 1008.8 |
| 20260503224007 | 24 | 333 | 1.6 | 8.0 | 0.00 | 0.00 | 0.00 | 35 | 1008.8 |
| 20260503223504 | 23 | 355 | 1.6 | 4.8 | 0.00 | 0.00 | 0.00 | 31 | 1008.8 |
| 20260503223010 | 24 | 351 | 0.0 | 3.2 | 0.00 | 0.00 | 0.00 | 32 | 1008.9 |
| 20260503222502 | 24 | 348 | 1.6 | 6.4 | 0.00 | 0.00 | 0.00 | 32 | 1008.9 |
| 20260503222006 | 24 | 348 | 0.0 | 8.0 | 0.00 | 0.00 | 0.00 | 31 | 1009.0 |
| 20260503221514 | 24 | 328 | 3.2 | 8.0 | 0.00 | 0.00 | 0.00 | 33 | 1009.0 |
| 20260503221006 | 24 | 347 | 0.0 | 6.4 | 0.00 | 0.00 | 0.00 | 32 | 1009.0 |
| 20260503220504 | 23 | 343 | 3.2 | 6.4 | 0.00 | 0.00 | 0.00 | 33 | 1008.9 |
| 20260503220021 | 23 | 320 | 3.2 | 4.8 | 0.00 | 0.00 | 0.00 | 33 | 1009.0 |
| 20260503215506 | 23 | 23 | 0.0 | 8.0 | 0.00 | 0.00 | 0.00 | 34 | 1009.0 |
| 20260503215007 | 23 | 345 | 0.0 | 8.0 | 0.00 | 0.00 | 0.00 | 33 | 1009.1 |
| 20260503214523 | 23 | 239 | 1.6 | 6.4 | 0.00 | 0.00 | 0.00 | 32 | 1009.3 |
| 20260503214003 | 25 | 322 | 1.6 | 9.7 | 0.00 | 0.00 | 0.00 | 31 | 1009.3 |
| 20260503213512 | 23 | 360 | 1.6 | 9.7 | 0.00 | 0.00 | 0.00 | 33 | 1009.4 |
| 20260503213010 | 23 | 246 | 3.2 | 14.5 | 0.00 | 0.00 | 0.00 | 34 | 1009.5 |
| 20260503212508 | 24 | 309 | 3.2 | 14.5 | 0.00 | 0.00 | 0.00 | 31 | 1009.6 |
| 20260503212005 | 24 | 309 | 4.8 | 14.5 | 0.00 | 0.00 | 0.00 | 33 | 1009.7 |
| 20260503211513 | 24 | 289 | 1.6 | 9.7 | 0.00 | 0.00 | 0.00 | 36 | 1009.7 |
| 20260503211007 | 24 | 227 | 3.2 | 12.9 | 0.00 | 0.00 | 0.00 | 30 | 1009.8 |
| 20260503210510 | 23 | 319 | 1.6 | 16.1 | 0.00 | 0.00 | 0.00 | 34 | 1009.9 |
| 20260503210035 | 23 | 300 | 8.0 | 17.7 | 0.00 | 0.00 | 0.00 | 33 | 1010.1 |
| 20260503205506 | 23 | 258 | 4.8 | 17.7 | 0.00 | 0.00 | 0.00 | 34 | 1010.1 |
| 20260503205007 | 23 | 252 | 1.6 | 12.9 | 0.00 | 0.00 | 0.00 | 36 | 1010.1 |
| 20260503204512 | 23 | 252 | 4.8 | 12.9 | 0.00 | 0.00 | 0.00 | 33 | 1010.2 |
| 20260503204008 | 23 | 305 | 1.6 | 11.3 | 0.00 | 0.00 | 0.00 | 30 | 1010.3 |
| 20260503203503 | 23 | 21 | 1.6 | 8.0 | 0.00 | 0.00 | 0.00 | 35 | 1010.4 |
| 20260503203020 | 23 | 107 | 0.0 | 8.0 | 0.00 | 0.00 | 0.00 | 34 | 1010.4 |
| 20260503202508 | 23 | 355 | 3.2 | 6.4 | 0.00 | 0.00 | 0.00 | 35 | 1010.5 |
| 20260503202004 | 23 | 232 | 1.6 | 6.4 | 0.00 | 0.00 | 0.00 | 37 | 1010.7 |
| 20260503201522 | 24 | 297 | 1.6 | 6.4 | 0.00 | 0.00 | 0.00 | 33 | 1010.7 |
| 20260503201005 | 23 | 350 | 1.6 | 12.9 | 0.00 | 0.00 | 0.00 | 37 | 1010.7 |
| 20260503200507 | 23 | 315 | 3.2 | 12.9 | 0.00 | 0.00 | 0.00 | 38 | 1010.8 |
| 20260503200018 | 24 | 5 | 6.4 | 12.9 | 0.00 | 0.00 | 0.00 | 35 | 1010.8 |
| 20260503195508 | 23 | 274 | 0.0 | 12.9 | 0.00 | 0.00 | 0.00 | 34 | 1010.7 |
| 20260503195006 | 23 | 88 | 3.2 | 12.9 | 0.00 | 0.00 | 0.00 | 34 | 1010.8 |
| 20260503194522 | 23 | 309 | 3.2 | 9.7 | 0.00 | 0.00 | 0.00 | 37 | 1010.8 |
| 20260503194004 | 22 | 332 | 1.6 | 12.9 | 0.00 | 0.00 | 0.00 | 39 | 1010.8 |
| 20260503193509 | 22 | 314 | 4.8 | 14.5 | 0.00 | 0.00 | 0.00 | 36 | 1010.8 |
| 20260503193022 | 22 | 311 | 1.6 | 14.5 | 0.00 | 0.00 | 0.00 | 34 | 1010.8 |
| 20260503192506 | 22 | 330 | 4.8 | 12.9 | 0.00 | 0.00 | 0.00 | 37 | 1010.9 |
| 20260503192008 | 22 | 350 | 3.2 | 14.5 | 0.00 | 0.00 | 0.00 | 35 | 1011.0 |
| 20260503191519 | 22 | 285 | 3.2 | 17.7 | 0.00 | 0.00 | 0.00 | 33 | 1011.0 |
| 20260503191009 | 22 | 323 | 11.3 | 17.7 | 0.00 | 0.00 | 0.00 | 34 | 1011.1 |
| 20260503190507 | 22 | 355 | 3.2 | 19.3 | 0.00 | 0.00 | 0.00 | 36 | 1011.1 |
| 20260503190017 | 22 | 331 | 9.7 | 19.3 | 0.00 | 0.00 | 0.00 | 36 | 1011.2 |
| 20260503185507 | 23 | 360 | 4.8 | 14.5 | 0.00 | 0.00 | 0.00 | 36 | 1011.1 |
| 20260503185009 | 23 | 346 | 4.8 | 14.5 | 0.00 | 0.00 | 0.00 | 37 | 1011.1 |
| 20260503184524 | 23 | 320 | 3.2 | 9.7 | 0.00 | 0.00 | 0.00 | 37 | 1011.1 |
| 20260503184011 | 22 | 344 | 3.2 | 14.5 | 0.00 | 0.00 | 0.00 | 34 | 1011.2 |
| 20260503183508 | 22 | 337 | 1.6 | 16.1 | 0.00 | 0.00 | 0.00 | 38 | 1011.3 |
| 20260503183023 | 22 | 314 | 6.4 | 16.1 | 0.00 | 0.00 | 0.00 | 38 | 1011.4 |
| 20260503182507 | 22 | 346 | 0.0 | 14.5 | 0.00 | 0.00 | 0.00 | 36 | 1011.4 |
| 20260503182007 | 22 | 294 | 4.8 | 12.9 | 0.00 | 0.00 | 0.00 | 38 | 1011.5 |
| 20260503181515 | 22 | 304 | 1.6 | 14.5 | 0.00 | 0.00 | 0.00 | 41 | 1011.4 |
| 20260503181008 | 22 | 30 | 3.2 | 14.5 | 0.00 | 0.00 | 0.00 | 34 | 1011.6 |
| 20260503180510 | 22 | 350 | 3.2 | 17.7 | 0.00 | 0.00 | 0.00 | 37 | 1011.7 |
| 20260503180026 | 22 | 336 | 4.8 | 19.3 | 0.00 | 0.00 | 0.00 | 38 | 1011.6 |
| 20260503175506 | 22 | 336 | 6.4 | 19.3 | 0.00 | 0.00 | 0.00 | 40 | 1011.8 |
| 20260503175008 | 22 | 306 | 4.8 | 17.7 | 0.00 | 0.00 | 0.00 | 38 | 1011.7 |
| 20260503174525 | 21 | 334 | 6.4 | 16.1 | 0.00 | 0.00 | 0.00 | 39 | 1011.7 |
| 20260503174010 | 21 | 315 | 6.4 | 16.1 | 0.00 | 0.00 | 0.00 | 39 | 1011.8 |
| 20260503173508 | 21 | 28 | 4.8 | 16.1 | 0.00 | 0.00 | 0.00 | 36 | 1011.8 |
| 20260503173020 | 21 | 320 | 6.4 | 16.1 | 0.00 | 0.00 | 0.00 | 36 | 1011.8 |
| 20260503172507 | 21 | 80 | 3.2 | 14.5 | 0.00 | 0.00 | 0.00 | 38 | 1011.8 |
| 20260503172010 | 22 | 342 | 4.8 | 14.5 | 0.00 | 0.00 | 0.00 | 36 | 1011.9 |
| 20260503171521 | 21 | 5 | 4.8 | 19.3 | 0.00 | 0.00 | 0.00 | 40 | 1011.9 |
| 20260503171008 | 21 | 329 | 8.0 | 19.3 | 0.00 | 0.00 | 0.00 | 39 | 1011.9 |
| 20260503170511 | 21 | 327 | 4.8 | 11.3 | 0.00 | 0.00 | 0.00 | 38 | 1011.9 |
| 20260503151010 | 16 | 329 | 4.8 | 14.5 | 0.00 | 0.00 | 0.00 | 51 | 1011.8 |
| 20260503150510 | 16 | 347 | 3.2 | 14.5 | 0.00 | 0.00 | 0.00 | 51 | 1011.8 |
| 20260503131006 | 12 | 250 | 4.8 | 16.1 | 0.00 | 0.00 | 0.00 | 56 | 1010.9 |
| 20260503130506 | 12 | 296 | 3.2 | 16.1 | 0.00 | 0.00 | 0.00 | 59 | 1010.8 |
| 20260503110506 | 11 | 331 | 0.0 | 6.4 | 0.00 | 0.00 | 0.00 | 54 | 1010.8 |
| 20260503090504 | 13 | 223 | 1.6 | 14.5 | 0.00 | 0.00 | 0.00 | 46 | 1010.4 |
| 20260503081523 | 12 | 147 | 0.0 | 6.4 | 0.00 | 0.00 | 0.00 | 47 | 1010.9 |
| 20260503081003 | 11 | 71 | 0.0 | 6.4 | 0.00 | 0.00 | 0.00 | 49 | 1010.9 |
| 20260503080507 | 11 | 333 | 0.0 | 6.4 | 0.00 | 0.00 | 0.00 | 49 | 1010.9 |
| 20260503072507 | 12 | 144 | 1.6 | 6.4 | 0.00 | 0.00 | 0.00 | 47 | 1011.2 |
| 20260503072006 | 12 | 163 | 1.6 | 9.7 | 0.00 | 0.00 | 0.00 | 45 | 1011.2 |
| 20260503071528 | 12 | 142 | 1.6 | 9.7 | 0.00 | 0.00 | 0.00 | 45 | 1011.2 |
| 20260503071009 | 12 | 152 | 3.2 | 9.7 | 0.00 | 0.00 | 0.00 | 45 | 1011.2 |
| 20260503070505 | 12 | 234 | 1.6 | 8.0 | 0.00 | 0.00 | 0.00 | 45 | 1011.3 |
| 20260503055008 | 13 | 172 | 1.6 | 12.9 | 0.00 | 0.00 | 0.00 | 41 | 1012.2 |
| 20260503054531 | 13 | 76 | 1.6 | 12.9 | 0.00 | 0.00 | 0.00 | 42 | 1012.3 |
| 20260503054006 | 13 | 263 | 1.6 | 11.3 | 0.00 | 0.00 | 0.00 | 41 | 1012.2 |
| 20260503053507 | 13 | 202 | 1.6 | 11.3 | 0.00 | 0.00 | 0.00 | 42 | 1012.3 |
| 20260503053019 | 13 | 223 | 3.2 | 12.9 | 0.00 | 0.00 | 0.00 | 42 | 1012.3 |
| 20260503052513 | 13 | 80 | 0.0 | 12.9 | 0.00 | 0.00 | 0.00 | 42 | 1012.2 |
| 20260503052009 | 13 | 288 | 3.2 | 12.9 | 0.00 | 0.00 | 0.00 | 42 | 1012.2 |
| 20260503051514 | 13 | 141 | 0.0 | 12.9 | 0.00 | 0.00 | 0.00 | 42 | 1012.2 |
| 20260503051005 | 13 | 202 | 3.2 | 12.9 | 0.00 | 0.00 | 0.00 | 43 | 1012.3 |
| 20260503050505 | 13 | 59 | 1.6 | 12.9 | 0.00 | 0.00 | 0.00 | 43 | 1012.4 |
| 20260503050022 | 13 | 296 | 3.2 | 8.0 | 0.00 | 0.00 | 0.00 | 44 | 1012.4 |
| 20260503045509 | 12 | 259 | 0.0 | 4.8 | 0.00 | 0.00 | 0.00 | 44 | 1012.4 |
| 20260503045013 | 13 | 98 | 1.6 | 4.8 | 0.00 | 0.00 | 0.00 | 44 | 1012.5 |
| 20260503044536 | 12 | 165 | 0.0 | 4.8 | 0.00 | 0.00 | 0.00 | 44 | 1012.6 |
| 20260503044012 | 12 | 150 | 0.0 | 4.8 | 0.00 | 0.00 | 0.00 | 44 | 1012.6 |
| 20260503043505 | 13 | 85 | 0.0 | 6.4 | 0.00 | 0.00 | 0.00 | 43 | 1012.6 |
| 20260503043023 | 13 | 92 | 0.0 | 6.4 | 0.00 | 0.00 | 0.00 | 43 | 1012.7 |
| 20260503042506 | 13 | 188 | 0.0 | 6.4 | 0.00 | 0.00 | 0.00 | 42 | 1012.8 |
| 20260503042009 | 13 | 132 | 0.0 | 6.4 | 0.00 | 0.00 | 0.00 | 42 | 1012.9 |
| 20260503041517 | 13 | 111 | 0.0 | 8.0 | 0.00 | 0.00 | 0.00 | 42 | 1012.9 |
| 20260503041010 | 13 | 186 | 0.0 | 8.0 | 0.00 | 0.00 | 0.00 | 41 | 1012.9 |
| 20260503040509 | 13 | 303 | 1.6 | 8.0 | 0.00 | 0.00 | 0.00 | 41 | 1013.1 |
| 20260503040018 | 13 | 155 | 0.0 | 6.4 | 0.00 | 0.00 | 0.00 | 41 | 1013.2 |
| 20260503035505 | 13 | 159 | 1.6 | 6.4 | 0.00 | 0.00 | 0.00 | 41 | 1013.2 |
| 20260503035007 | 13 | 296 | 0.0 | 6.4 | 0.00 | 0.00 | 0.00 | 40 | 1013.2 |
| 20260503034522 | 14 | 280 | 0.0 | 11.3 | 0.00 | 0.00 | 0.00 | 40 | 1013.3 |
| 20260503034005 | 14 | 158 | 1.6 | 12.9 | 0.00 | 0.00 | 0.00 | 40 | 1013.3 |
| 20260503033508 | 14 | 278 | 1.6 | 12.9 | 0.00 | 0.00 | 0.00 | 39 | 1013.3 |
| 20260503033023 | 14 | 178 | 1.6 | 12.9 | 0.00 | 0.00 | 0.00 | 38 | 1013.4 |
| 20260503032509 | 14 | 149 | 1.6 | 11.3 | 0.00 | 0.00 | 0.00 | 38 | 1013.6 |
| 20260503032009 | 14 | 132 | 0.0 | 11.3 | 0.00 | 0.00 | 0.00 | 39 | 1013.7 |
| 20260503031525 | 14 | 171 | 0.0 | 14.5 | 0.00 | 0.00 | 0.00 | 39 | 1013.7 |
| 20260503031009 | 14 | 198 | 1.6 | 14.5 | 0.00 | 0.00 | 0.00 | 38 | 1013.8 |
| 20260503030511 | 15 | 179 | 1.6 | 9.7 | 0.00 | 0.00 | 0.00 | 37 | 1013.8 |
| 20260503030028 | 15 | 166 | 1.6 | 9.7 | 0.00 | 0.00 | 0.00 | 37 | 1013.9 |
| 20260503025509 | 15 | 237 | 1.6 | 8.0 | 0.00 | 0.00 | 0.00 | 37 | 1013.9 |
| 20260503025008 | 15 | 208 | 3.2 | 8.0 | 0.00 | 0.00 | 0.00 | 38 | 1013.9 |
| 20260503024522 | 14 | 85 | 0.0 | 6.4 | 0.00 | 0.00 | 0.00 | 37 | 1014.0 |
| 20260503024012 | 15 | 67 | 1.6 | 6.4 | 0.00 | 0.00 | 0.00 | 39 | 1014.0 |
| 20260503023506 | 15 | 150 | 0.0 | 6.4 | 0.00 | 0.00 | 0.00 | 39 | 1014.1 |
| 20260503023024 | 14 | 207 | 0.0 | 6.4 | 0.00 | 0.00 | 0.00 | 40 | 1014.1 |
| 20260503022506 | 14 | 201 | 1.6 | 6.4 | 0.00 | 0.00 | 0.00 | 40 | 1014.0 |
| 20260503022015 | 13 | 198 | 0.0 | 4.8 | 0.00 | 0.00 | 0.00 | 43 | 1014.1 |
| 20260503021526 | 14 | 152 | 0.0 | 4.8 | 0.00 | 0.00 | 0.00 | 40 | 1014.2 |
| 20260503021006 | 14 | 157 | 0.0 | 4.8 | 0.00 | 0.00 | 0.00 | 41 | 1014.2 |
| 20260503020509 | 14 | 158 | 0.0 | 4.8 | 0.00 | 0.00 | 0.00 | 41 | 1014.3 |
| 20260503020020 | 14 | 113 | 0.0 | 0.0 | 0.00 | 0.00 | 0.00 | 40 | 1014.3 |
| 20260503015510 | 14 | 113 | 0.0 | 0.0 | 0.00 | 0.00 | 0.00 | 40 | 1014.4 |
| 20260503015008 | 14 | 113 | 0.0 | 0.0 | 0.00 | 0.00 | 0.00 | 40 | 1014.5 |
| 20260503014526 | 15 | 113 | 0.0 | 0.0 | 0.00 | 0.00 | 0.00 | 40 | 1014.5 |
| 20260503014008 | 15 | 113 | 0.0 | 0.0 | 0.00 | 0.00 | 0.00 | 38 | 1014.5 |
| 20260503013513 | 15 | 113 | 0.0 | 0.0 | 0.00 | 0.00 | 0.00 | 36 | 1014.5 |
| 20260503013030 | 15 | 113 | 0.0 | 0.0 | 0.00 | 0.00 | 0.00 | 36 | 1014.5 |
| 20260503012510 | 16 | 113 | 0.0 | 0.0 | 0.00 | 0.00 | 0.00 | 36 | 1014.6 |
| 20260503012014 | 16 | 113 | 0.0 | 3.2 | 0.00 | 0.00 | 0.00 | 36 | 1014.6 |
| 20260503011529 | 16 | 113 | 0.0 | 3.2 | 0.00 | 0.00 | 0.00 | 35 | 1014.5 |
| 20260503011011 | 16 | 168 | 0.0 | 3.2 | 0.00 | 0.00 | 0.00 | 32 | 1014.6 |
| 20260503010510 | 17 | 169 | 0.0 | 3.2 | 0.00 | 0.00 | 0.00 | 31 | 1014.6 |
| 20260503010024 | 17 | 166 | 0.0 | 1.6 | 0.00 | 0.00 | 0.00 | 32 | 1014.6 |
| 20260503005509 | 17 | 167 | 0.0 | 3.2 | 0.00 | 0.00 | 0.00 | 31 | 1014.6 |
| 20260503005008 | 17 | 247 | 0.0 | 9.7 | 0.00 | 0.00 | 0.00 | 31 | 1014.6 |
| 20260503004526 | 17 | 126 | 1.6 | 9.7 | 0.00 | 0.00 | 0.00 | 30 | 1014.6 |
| 20260503004009 | 18 | 179 | 1.6 | 8.0 | 0.00 | 0.00 | 0.00 | 30 | 1014.6 |
| 20260503003507 | 18 | 17 | 0.0 | 3.2 | 0.00 | 0.00 | 0.00 | 30 | 1014.6 |
| 20260503003025 | 18 | 257 | 0.0 | 9.7 | 0.00 | 0.00 | 0.00 | 29 | 1014.7 |
| 20260503002510 | 18 | 252 | 1.6 | 9.7 | 0.00 | 0.00 | 0.00 | 28 | 1014.7 |
| 20260503002007 | 18 | 267 | 0.0 | 6.4 | 0.00 | 0.00 | 0.00 | 29 | 1014.7 |
| 20260503001522 | 18 | 107 | 0.0 | 8.0 | 0.00 | 0.00 | 0.00 | 29 | 1014.8 |
| 20260503001009 | 18 | 154 | 1.6 | 9.7 | 0.00 | 0.00 | 0.00 | 29 | 1014.7 |
| 20260503000505 | 18 | 177 | 1.6 | 9.7 | 0.00 | 0.00 | 0.00 | 27 | 1014.9 |
| 20260503000024 | 18 | 338 | 0.0 | 11.3 | 0.00 | 0.00 | 0.00 | 30 | 1015.0 |
| 20260502235512 | 18 | 233 | 3.2 | 11.3 | 0.00 | 0.00 | 0.00 | 26 | 1015.2 |
| 20260502235009 | 18 | 314 | 3.2 | 9.7 | 0.00 | 0.00 | 0.00 | 32 | 1015.3 |
| 20260502234503 | 19 | 229 | 1.6 | 9.7 | 0.00 | 0.00 | 0.00 | 26 | 1015.3 |
| 20260502234009 | 19 | 105 | 0.0 | 9.7 | 0.00 | 0.00 | 0.00 | 28 | 1015.3 |
| 20260502233506 | 19 | 250 | 0.0 | 14.5 | 0.00 | 0.00 | 0.00 | 27 | 1015.3 |
| 20260502233003 | 19 | 329 | 0.0 | 14.5 | 0.00 | 0.00 | 0.00 | 30 | 1015.4 |
| 20260502232503 | 19 | 305 | 1.6 | 11.3 | 0.00 | 0.00 | 0.00 | 27 | 1015.5 |